Location: Newark
(38.7000°N, 9.1833°W)
Time: 02:16:05
(UTC+00:00)

N. Korean satellite - Visible Passes

Search period start: 23 October 2019 00:00
Search period end: 02 November 2019 00:00
Orbit: 455 x 508 km, 97.2° (Epoch: 22 October)

Date Brightness Start Highest point End Pass type
(mag) Time Alt. Az. Time Alt. Az. Time Alt. Az.
23 Oct 10.3 18:51:48 10° WSW 18:53:05 12° W 18:54:23 10° WNW visible
24 Oct 7.5 06:16:48 10° NNE 06:20:23 54° E 06:24:01 10° S visible
24 Oct 9.2 18:24:45 10° SSW 18:27:37 25° W 18:30:31 10° NW visible
25 Oct 9.2 05:51:56 10° NE 05:55:01 25° E 05:58:06 10° SSE visible
26 Oct 10.3 05:27:59 10° ENE 05:29:33 12° E 05:31:08 10° ESE visible
27 Oct 10.0 18:43:06 10° SW 18:45:08 15° W 18:47:11 10° WNW visible
28 Oct 8.1 06:08:59 10° NNE 06:12:31 42° E 06:16:03 10° S visible
28 Oct 8.7 18:16:34 10° SSW 18:19:40 31° W 18:22:50 10° NNW visible
29 Oct 9.6 05:44:17 10° NE 05:47:06 20° E 05:49:55 10° SE visible
31 Oct 6.9 06:26:14 10° NNE 06:29:57 76° ESE 06:33:40 10° S visible
31 Oct 9.7 18:34:37 10° SW 18:37:08 19° W 18:39:42 10° NW visible
01 Nov 8.6 06:01:11 10° NNE 06:04:35 34° E 06:07:59 10° SSE visible
01 Nov 8.1 18:08:25 10° S 18:11:42 40° W 18:15:03 10° NNW visible
